FW7380 Weather Reports


Display with metric or nautical units.
time (UTC)temp
F
wind
direction
speed
MPH
gust
MPH
rain 1hr
in
rain 24hr
in
rain mn
in
humidity
%
barometer
mb
20260507070058 48 188 2.0 5.0 0.00 0.11 0.00 91 1006.8
20260507064546 48 175 3.0 5.0 0.00 0.11 0.00 91 1006.3
20260507063037 48 165 2.0 7.0 0.00 0.11 0.00 90 1006.1
20260507061539 48 179 1.0 4.0 0.00 0.11 0.00 91 1006.4
20260507060040 49 187 1.0 5.0 0.00 0.11 0.00 91 1006.6
20260507054559 49 165 1.0 3.0 0.00 0.11 0.00 93 1006.7
20260507053038 49 0 1.0 5.0 0.00 0.11 0.00 91 1006.9
20260507051541 49 169 2.0 5.0 0.00 0.11 0.00 92 1006.8
20260507050048 50 156 3.0 5.0 0.00 0.11 0.00 93 1006.6
20260507044544 50 181 3.0 7.0 0.00 0.11 0.00 94 1006.7
20260507043039 50 172 1.0 5.0 0.00 0.11 0.00 95 1006.6
20260507041542 50 171 3.0 6.0 0.00 0.11 0.00 95 1006.9
20260507040042 51 167 2.0 7.0 0.00 0.11 0.00 96 1006.8
20260507034543 52 147 3.0 9.0 0.00 0.11 0.11 97 1006.5
20260507033041 53 181 2.0 10.0 0.01 0.11 0.11 97 1006.2
20260507031541 55 184 2.0 9.0 0.01 0.11 0.11 98 1005.8
20260507030039 56 188 3.0 5.0 0.01 0.11 0.11 99 1006.0
20260507024539 58 170 3.0 6.0 0.01 0.11 0.11 99 1005.6
20260507023037 58 148 2.0 6.0 0.00 0.10 0.10 99 1005.5
20260507021542 58 86 2.0 6.0 0.00 0.10 0.10 99 1005.1
20260507020050 58 196 1.0 7.0 0.00 0.10 0.10 99 1005.2
20260507014547 58 94 2.0 10.0 0.00 0.10 0.10 99 1005.2
20260507013045 58 25 2.0 11.0 0.00 0.10 0.10 99 1005.3
20260507011543 58 97 2.0 10.0 0.00 0.10 0.10 99 1005.3
20260507010043 58 65 2.0 9.0 0.00 0.10 0.10 99 1005.4
20260507004543 58 356 2.0 5.0 0.00 0.10 0.10 99 1005.2
20260507003039 58 333 2.0 9.0 0.01 0.10 0.10 99 1005.2
20260507001555 58 198 2.0 8.0 0.01 0.10 0.10 99 1005.2
20260507000050 58 179 3.0 8.0 0.03 0.10 0.10 99 1005.2
20260506234549 58 1 2.0 14.0 0.05 0.10 0.10 99 1005.0
20260506233041 58 98 4.0 12.0 0.04 0.09 0.09 99 1005.1
20260506231544 58 11 3.0 12.0 0.05 0.09 0.09 99 1005.0
20260506230042 58 134 4.0 13.0 0.04 0.07 0.07 99 1005.4
20260506224540 58 106 4.0 14.0 0.02 0.05 0.05 99 1005.4
20260506223038 58 91 4.0 16.0 0.02 0.05 0.05 99 1005.4
20260506221550 58 299 4.0 11.0 0.02 0.04 0.04 99 1005.5
20260506220043 58 349 4.0 11.0 0.01 0.03 0.03 99 1005.7
20260506214537 58 101 3.0 10.0 0.03 0.03 0.03 99 1005.8
20260506213046 58 84 3.0 13.0 0.03 0.03 0.03 98 1005.8
20260506211545 58 115 4.0 14.0 0.02 0.02 0.02 98 1006.0
20260506210045 59 173 5.0 12.0 0.02 0.02 0.02 98 1006.1
20260506204538 59 59 4.0 12.0 0.00 0.00 0.00 98 1006.2
20260506203038 60 19 3.0 13.0 0.00 0.00 0.00 98 1006.1
20260506201540 60 1 2.0 9.0 0.00 0.00 0.00 98 1006.3
20260506200045 60 146 2.0 7.0 0.00 0.00 0.00 98 1006.4
20260506194543 61 129 2.0 9.0 0.00 0.00 0.00 98 1006.2
20260506193048 61 0 0.0 4.0 0.00 0.00 0.00 98 1006.3
20260506191539 61 148 1.0 4.0 0.00 0.00 0.00 98 1006.3
20260506190037 61 153 0.0 3.0 0.00 0.00 0.00 97 1006.6
20260506184539 61 180 1.0 4.0 0.00 0.00 0.00 96 1006.7
20260506183038 61 170 1.0 6.0 0.00 0.00 0.00 94 1006.9
20260506181553 63 169 1.0 2.0 0.00 0.00 0.00 88 1006.9
20260506180039 66 180 0.0 3.0 0.00 0.00 0.00 80 1007.0
20260506174538 70 46 5.0 22.0 0.00 0.00 0.00 66 1006.9
20260506173103 71 133 4.0 15.0 0.00 0.00 0.00 63 1006.6
20260506171542 71 137 4.0 14.0 0.00 0.00 0.00 63 1006.7
20260506170056 70 157 5.0 19.0 0.00 0.00 0.00 65 1006.9
20260506164539 70 87 4.0 15.0 0.00 0.00 0.00 66 1007.1
20260506163050 69 46 3.0 10.0 0.00 0.00 0.00 68 1007.4
20260506161540 69 132 2.0 9.0 0.00 0.00 0.00 68 1007.5
20260506160042 68 86 5.0 13.0 0.00 0.00 0.00 69 1008.0
20260506154603 68 209 5.0 12.0 0.00 0.00 0.00 69 1008.3
20260506153038 69 124 2.0 15.0 0.00 0.00 0.00 69 1008.6
20260506151539 69 31 3.0 13.0 0.00 0.00 0.00 69 1008.7
20260506150047 68 11 4.0 10.0 0.00 0.00 0.00 71 1008.6
20260506144544 68 25 3.0 12.0 0.00 0.00 0.00 72 1008.7
20260506143044 67 68 6.0 14.0 0.00 0.00 0.00 73 1008.7
20260506141538 66 146 6.0 15.0 0.00 0.00 0.00 75 1008.5
20260506140039 65 18 4.0 16.0 0.00 0.00 0.00 77 1008.6
20260506134538 64 82 5.0 11.0 0.00 0.00 0.00 78 1008.6
20260506133052 64 164 2.0 8.0 0.00 0.00 0.00 79 1008.9
20260506131538 63 153 3.0 11.0 0.00 0.00 0.00 79 1008.8
20260506130039 64 40 5.0 17.0 0.00 0.00 0.00 78 1008.9
20260506124541 64 276 2.0 12.0 0.00 0.00 0.00 78 1009.0
20260506123040 63 128 3.0 11.0 0.00 0.00 0.00 79 1008.8
20260506121539 63 134 8.0 11.0 0.00 0.00 0.00 1009.0
20260506120038 0 0.0 0.0 0.00 0.00 0.00 1009.1
20260506114542 0 0.0 0.0 0.00 0.00 0.00 1009.3
20260506113039 0 0.0 0.0 0.00 0.00 0.00 1009.4
20260506111538 0 0.0 0.0 0.00 0.00 0.00 1009.4
20260506110043 0 0.0 0.0 0.00 0.00 0.00 1009.3
20260506104604 0 0.0 0.0 0.00 0.00 0.00 1009.6
20260506103041 0 0.0 0.0 0.00 0.00 0.00 1009.3
20260506101535 0 0.0 0.0 0.00 0.00 0.00 1009.3
20260506100043 0 0.0 0.0 0.00 0.00 0.00 1009.5
20260506094539 0 0.0 0.0 0.00 0.00 0.00 1009.3
20260506093037 0 0.0 0.0 0.00 0.00 0.00 1009.4
20260506091538 0 0.0 0.0 0.00 0.00 0.00 1009.4
20260506090044 0 2.0 6.0 0.00 0.00 0.00 1009.4
20260506084537 60 181 2.0 9.0 0.00 0.00 0.00 80 1009.3
20260506083044 60 354 2.0 10.0 0.00 0.00 0.00 79 1009.3
20260506081537 60 8 2.0 7.0 0.00 0.00 0.00 78 1009.4
20260506073038 61 63 2.0 10.0 0.00 0.00 0.00 75 1009.0
20260506071540 61 101 3.0 9.0 0.00 0.00 0.00 75 1008.9